Weather History for KTOR - October, 2011

Change the Weather History Date:

Thursday, October 6, 2011

  Actual Average Record
Temperature  
Mean Temperature 59 °F 52 °F  
Max Temperature 76 °F 67 °F 85 °F (1999)
Min Temperature 41 °F 37 °F 21 °F (2000)
Degree Days  
Heating Degree Days 6 13  
Month to date heating degree days 8 73  
Since 1 July heating degree days 128 267  
Cooling Degree Days 0 0  
Month to date cooling degree days 5 0  
Year to date cooling degree days 843 678  
Growing Degree Days 10 (Base 50)    
Moisture  
Dew Point 42 °F    
Average Humidity 56    
Maximum Humidity 89    
Minimum Humidity 23    
Precipitation  
Precipitation T in 0.04 in 0.17 in (2012)
Month to date precipitation 0.07 0.23  
Year to date precipitation 14.54 12.56  
Sea Level Pressure  
Sea Level Pressure 29.43 in    
Wind  
Wind Speed 10 mph (SSW)    
Max Wind Speed 43 mph    
Max Gust Speed 58 mph    
Visibility 9 miles    
Events Rain , Thunderstorm    
T = Trace of Precipitation, MM = Missing Value Source: NWS Daily Summary

Daily Weather History Graph

Daily Weather History Graph

Search for Another Location

Airport or City:

Trip Planner

Search our weather history database for the weather conditions in past years. The results will help you decide how hot, cold, wet, or windy it might be!

Date:

Astronomy

Oct. 06, 2011 Rise Set
Actual Time 6:58 AM MDT 6:30 PM MDT
Civil Twilight 6:30 AM MDT 6:57 PM MDT
Nautical Twilight 5:58 AM MDT 7:30 PM MDT
Astronomical Twilight 5:25 AM MDT 8:02 PM MDT
Moon 3:49 PM MDT (10/6) 1:44 AM MDT (10/6)
Length of Visible Light 12h 27m
Length of Day
11h 31m
Waxing Gibbous, 76% of the Moon is Illuminated
Oct 6
Waxing Gibbous
Oct 11
Full
Oct 19
Last Quarter
Oct 26
New
Nov 2
First Quarter

Hourly Weather History & Observations

Time (MDT) Temp. Windchill Dew Point Humidity Pressure Visibility Wind Dir Wind Speed Gust Speed Precip Events Conditions
3:53 AM 54.0 °F - 44.1 °F 69% 29.42 in 10.0 mi East 9.2 mph - N/A   Clear
4:53 AM 54.0 °F - 46.0 °F 75% 29.41 in 10.0 mi East 12.7 mph - N/A   Clear
5:53 AM 55.0 °F - 48.0 °F 77% 29.42 in 10.0 mi ESE 9.2 mph - N/A   Clear
6:53 AM 54.0 °F - 50.0 °F 86% 29.42 in 10.0 mi SE 5.8 mph - N/A   Clear
7:53 AM 55.0 °F - 51.1 °F 86% 29.43 in 8.0 mi SE 5.8 mph - N/A   Unknown
9:53 AM 59.0 °F - 51.1 °F 75% 29.39 in 10.0 mi SE 8.1 mph - N/A   Clear
10:53 AM 62.1 °F - 48.0 °F 60% 29.36 in 10.0 mi SSE 8.1 mph - N/A   Partly Cloudy
12:53 PM 69.1 °F - 46.0 °F 44% 29.29 in 10.0 mi Variable 5.8 mph - N/A   Clear
1:53 PM 72.0 °F - 46.0 °F 40% 29.26 in 10.0 mi Variable 4.6 mph - N/A   Partly Cloudy
3:53 PM 75.0 °F - 35.1 °F 23% 29.21 in 10.0 mi SE 8.1 mph - N/A   Clear
5:00 PM 53.6 °F - 41.0 °F 62% 29.43 in 3.0 mi West 32.2 mph 50.6 mph 0.00 in Rain , Thunderstorm Light Rain
5:06 PM 53.1 °F - 39.0 °F 59% 29.37 in 5.0 mi West 38.0 mph 50.6 mph 0.00 in Thunderstorm Haze
5:13 PM 51.8 °F - 39.2 °F 62% 29.45 in 8.0 mi West 29.9 mph 50.6 mph N/A   Unknown
5:53 PM 51.1 °F - 39.0 °F 63% 29.44 in 10.0 mi West 21.9 mph 34.5 mph N/A   Partly Cloudy
7:53 PM 51.1 °F - 37.9 °F 61% 29.51 in 10.0 mi WNW 8.1 mph - N/A   Overcast
8:53 PM 50.0 °F - 37.9 °F 63% 29.55 in 10.0 mi NW 4.6 mph - N/A   Overcast
9:53 PM 48.9 °F - 37.9 °F 66% 29.55 in 10.0 mi Calm Calm - N/A   Mostly Cloudy
10:53 PM 46.9 °F - 33.1 °F 59% 29.57 in 10.0 mi WSW 5.8 mph - N/A   Clear
11:53 PM 45.0 °F 41.2 °F 28.9 °F 53% 29.60 in 10.0 mi West 6.9 mph - N/A   Clear